User: anonymous   Login
Location: Unspecified
(0.0000°N, 0.0000°E)
Time: 23:24:09
(UTC+00:00)
Language:

RAX (USA 218) - Orbit

View from above orbital plane
View from above orbital plane
View from above satellite
View from above satellite

Ground track
Ground track

The orbit is defined by the following mean orbital elements,

1 37223U          26140.33612515 +.00000000 +00000-0 +18066-3 0 00003
2 37223  71.9686 103.2980 0011325  89.2983 270.9488 15.00137823    08
Epoch (UTC): 20 May 2026 08:04:01
Eccentricity: 0.0011325
inclination: 71.9686°
perigee height: 559 km
apogee height: 574 km
right ascension of ascending node: 103.2980°
argument of perigee: 89.2983°
revolutions per day: 15.00137823
mean anomaly at epoch: 270.9488°

The dashed part of the orbit path shows where the satellite is in the earth's shadow,  

DLR